Location: Newark
(51.2625°N, 13.3939°E)
Time: 07:47:36
(UTC+00:00)

deb Explorer IX - Pass Details

Date: 17 November 2019
Orbit: 545 x 1105 km, 38.8° (Epoch: 05 December)

Event Time Altitude Azimuth Distance (km) Brightness Sun altitude
Rises 04:44:31 0° 254° (WSW) 3,196 - -15.7°
Reaches altitude 10° 04:48:10 10° 231° (SW) 2,142 - -15.1°
Exits shadow 04:48:10 10° 231° (SW) 2,141 ? -15.1°
Maximum altitude 04:50:43 14° 199° (SSW) 1,795 ? -14.7°
Drops below altitude 10° 04:53:07 10° 167° (SSE) 1,985 ? -14.4°
Sets 04:56:16 0° 142° (SE) 2,803 ? -13.9°
